{"data":{"norad_id":43802,"intl_designator":"2018-099AW","name":"SKYSAT-C13","alt_names":[],"object_type":"PAYLOAD","status":"ACTIVE","operator":null,"country":"US","launch_date":"2018-12-03","launch_site_code":"AFWTR","launch_vehicle":null,"mission":null,"orbit_class":"UNKNOWN","rcs_meters":null,"size_class":null,"mass_kg":null,"dimensions":null,"purposes":["earth_obs"],"wikipedia_slug":null,"has_3d_model":false,"image_url":null,"decayed_at":null,"tle_current":{"epoch":"2026-06-12T02:35:05.662752Z","epoch_age_seconds":8688243,"freshness":"OLD","line1":"1 43802U 18099AW  26163.10770443  .00720066  30311-3  61473-3 0  9994","line2":"2 43802  96.9045 212.5387 0007304 218.4724 141.6042 16.13516080422166","mean_motion":16.1351608,"eccentricity":0.0007304,"inclination_deg":96.9045,"raan_deg":212.5387,"arg_perigee_deg":218.4724,"mean_anomaly_deg":141.6042,"bstar":0.00061473,"rev_number":42216,"period_min":89.246089199185,"perigee_km":232.38342582614,"apogee_km":242.04713243549,"semimajor_km":6615.3522791308,"source":"CELESTRAK","updated_at":"2026-06-13T09:00:32.568681Z"}}}